Time,TemperatureF,DewpointF,PressureIn,WindDirection,WindDirectionDegrees,WindSpeedMPH,WindSpeedGustMPH,Humidity,HourlyPrecipIn,Conditions,Clouds,dailyrainin,SoftwareType,DateUTC
2013-03-13 00:00:00,52.7,44.7,30.11,North,0,4.3,5.9,74,0.00,,,0.00,VWS V14.01,2013-03-13 07:00:00,
2013-03-13 00:10:00,53.2,44.8,30.11,NNE,19,3.2,6.4,73,0.00,,,0.00,VWS V14.01,2013-03-13 07:10:00,
2013-03-13 00:20:00,53.4,45.7,30.11,East,82,0.0,4.3,75,0.00,,,0.00,VWS V14.01,2013-03-13 07:20:00,
2013-03-13 00:30:00,53.4,45.7,30.11,NNE,16,7.0,7.0,75,0.00,,,0.00,VWS V14.01,2013-03-13 07:30:00,
2013-03-13 00:40:00,53.2,45.2,30.11,NNE,19,0.0,7.0,74,0.00,,,0.00,VWS V14.01,2013-03-13 07:40:00,
2013-03-13 00:50:00,53.2,44.8,30.11,NNE,19,0.0,3.2,73,0.00,,,0.00,VWS V14.01,2013-03-13 07:50:00,
2013-03-13 01:00:00,53.1,44.3,30.11,NNE,19,0.0,0.0,72,0.00,,,0.00,VWS V14.01,2013-03-13 08:00:00,
2013-03-13 01:10:00,52.9,44.1,30.11,NW,312,0.0,3.2,72,0.00,,,0.00,VWS V14.01,2013-03-13 08:10:00,
2013-03-13 01:20:00,52.7,43.9,30.11,NW,312,0.0,0.0,72,0.00,,,0.00,VWS V14.01,2013-03-13 08:20:00,
2013-03-13 01:30:00,52.3,43.6,30.11,WSW,237,0.0,2.7,72,0.00,,,0.00,VWS V14.01,2013-03-13 08:30:00,
2013-03-13 01:40:00,52.3,43.6,30.11,SW,232,0.0,0.0,72,0.00,,CLR,0.00,VWS V14.01,2013-03-13 08:40:00,
2013-03-13 01:50:00,52.2,43.4,30.11,SW,217,0.0,0.0,72,0.00,,CLR,0.00,VWS V14.01,2013-03-13 08:50:00,
2013-03-13 02:00:00,52.0,43.2,30.11,SW,217,0.0,0.0,72,0.00,,,0.00,VWS V14.01,2013-03-13 09:00:00,
2013-03-13 02:10:00,51.6,43.3,30.11,WNW,289,3.2,3.2,73,0.00,,,0.00,VWS V14.01,2013-03-13 09:10:00,
2013-03-13 02:20:00,51.8,43.1,30.11,North,356,3.8,5.9,72,0.00,,,0.00,VWS V14.01,2013-03-13 09:20:00,
2013-03-13 02:30:00,51.8,43.1,30.11,ENE,60,3.8,4.3,72,0.00,,,0.00,VWS V14.01,2013-03-13 09:30:00,
2013-03-13 02:40:00,51.8,43.1,30.11,ENE,75,0.0,5.9,72,0.00,,,0.00,VWS V14.01,2013-03-13 09:40:00,
2013-03-13 02:50:00,51.8,42.7,30.11,ENE,75,0.0,2.7,71,0.00,,,0.00,VWS V14.01,2013-03-13 09:50:00,
2013-03-13 03:00:00,51.6,42.5,30.11,ENE,66,0.0,3.8,71,0.00,,,0.00,VWS V14.01,2013-03-13 10:00:00,
2013-03-13 03:10:00,51.4,42.7,30.11,ENE,59,0.0,4.8,72,0.00,,,0.00,VWS V14.01,2013-03-13 10:10:00,
2013-03-13 03:20:00,51.1,42.7,30.11,NE,54,0.0,0.0,73,0.00,,,0.00,VWS V14.01,2013-03-13 10:20:00,
2013-03-13 03:30:00,50.9,42.9,30.11,NE,54,0.0,0.0,74,0.00,,,0.00,VWS V14.01,2013-03-13 10:30:00,
2013-03-13 03:40:00,50.4,43.1,30.11,NE,53,0.0,0.0,76,0.00,,,0.00,VWS V14.01,2013-03-13 10:40:00,
2013-03-13 03:50:00,50.0,43.4,30.11,NNE,26,3.2,4.3,78,0.00,,,0.00,VWS V14.01,2013-03-13 10:50:00,
2013-03-13 04:00:00,49.6,44.4,30.11,NNE,30,0.0,4.3,82,0.00,,,0.00,VWS V14.01,2013-03-13 11:00:00,
2013-03-13 04:10:00,49.6,44.7,30.11,ENE,58,3.2,3.2,83,0.00,,,0.00,VWS V14.01,2013-03-13 11:10:00,
2013-03-13 04:20:00,49.6,45.0,30.11,ENE,61,3.2,4.3,84,0.00,,,0.00,VWS V14.01,2013-03-13 11:20:00,
2013-03-13 04:30:00,49.5,44.8,30.11,ENE,61,0.0,3.2,84,0.00,,,0.00,VWS V14.01,2013-03-13 11:30:00,
2013-03-13 04:40:00,49.3,44.7,30.11,ENE,61,0.0,3.2,84,0.00,,,0.00,VWS V14.01,2013-03-13 11:40:00,
2013-03-13 04:50:00,49.1,44.2,30.11,North,11,2.7,4.3,83,0.00,,,0.00,VWS V14.01,2013-03-13 11:50:00,
2013-03-13 05:00:00,48.9,43.3,30.11,North,11,0.0,2.7,81,0.00,,,0.00,VWS V14.01,2013-03-13 12:00:00,
2013-03-13 05:10:00,48.9,42.7,30.11,WSW,245,2.7,3.8,79,0.00,,,0.00,VWS V14.01,2013-03-13 12:10:00,
2013-03-13 05:20:00,48.9,42.7,30.11,West,273,0.0,3.8,79,0.00,,,0.00,VWS V14.01,2013-03-13 12:20:00,
2013-03-13 05:30:00,49.1,43.2,30.11,WSW,250,0.0,4.8,80,0.00,,,0.00,VWS V14.01,2013-03-13 12:30:00,
2013-03-13 05:40:00,49.3,43.4,30.11,West,270,3.2,3.8,80,0.00,,,0.00,VWS V14.01,2013-03-13 12:40:00,
2013-03-13 05:50:00,49.1,43.2,30.11,West,272,0.0,3.2,80,0.00,,,0.00,VWS V14.01,2013-03-13 12:50:00,
2013-03-13 06:00:00,49.1,43.2,30.11,West,272,0.0,0.0,80,0.00,,,0.00,VWS V14.01,2013-03-13 13:00:00,
2013-03-13 06:10:00,48.9,43.0,30.11,SW,226,0.0,0.0,80,0.00,,,0.00,VWS V14.01,2013-03-13 13:10:00,
2013-03-13 06:20:00,48.9,43.3,30.11,NW,307,0.0,4.3,81,0.00,,,0.00,VWS V14.01,2013-03-13 13:20:00,
2013-03-13 06:30:00,48.7,43.5,30.11,SSW,202,0.0,3.2,82,0.00,,,0.00,VWS V14.01,2013-03-13 13:30:00,
2013-03-13 06:40:00,48.7,43.8,30.11,SSW,202,0.0,0.0,83,0.00,,,0.00,VWS V14.01,2013-03-13 13:40:00,
2013-03-13 06:50:00,48.4,43.2,30.11,SSW,202,0.0,2.7,82,0.00,,,0.00,VWS V14.01,2013-03-13 13:50:00,
2013-03-13 07:00:00,48.0,42.8,30.11,SSW,202,0.0,0.0,82,0.00,,,0.00,VWS V14.01,2013-03-13 14:00:00,
2013-03-13 07:10:00,47.5,42.0,30.11,NNE,20,0.0,0.0,81,0.00,,,0.00,VWS V14.01,2013-03-13 14:10:00,
2013-03-13 07:20:00,47.3,41.8,30.11,NE,44,0.0,0.0,81,0.00,,,0.00,VWS V14.01,2013-03-13 14:20:00,
2013-03-13 07:30:00,47.3,41.5,30.11,ENE,67,2.7,4.3,80,0.00,,,0.00,VWS V14.01,2013-03-13 14:30:00,
2013-03-13 07:40:00,47.3,41.1,30.14,ENE,73,0.0,2.7,79,0.00,,,0.00,VWS V14.01,2013-03-13 14:40:00,
2013-03-13 07:50:00,47.3,40.8,30.14,ENE,73,0.0,0.0,78,0.00,,,0.00,VWS V14.01,2013-03-13 14:50:00,
2013-03-13 08:00:00,47.5,41.0,30.14,East,83,0.0,3.2,78,0.00,,,0.00,VWS V14.01,2013-03-13 15:00:00,
2013-03-13 08:10:00,47.8,41.7,30.14,ENE,74,0.0,4.3,79,0.00,,,0.00,VWS V14.01,2013-03-13 15:10:00,
2013-03-13 08:20:00,48.9,42.0,30.14,NNE,21,4.3,5.9,77,0.00,,,0.00,VWS V14.01,2013-03-13 15:20:00,
2013-03-13 08:30:00,50.0,42.0,30.14,ENE,67,0.0,4.3,74,0.00,,,0.00,VWS V14.01,2013-03-13 15:30:00,
2013-03-13 08:40:00,50.4,42.0,30.14,NNE,30,0.0,3.2,73,0.00,,,0.00,VWS V14.01,2013-03-13 15:40:00,
2013-03-13 08:50:00,50.9,42.6,30.14,NE,50,0.0,4.3,73,0.00,,SCT001,0.00,VWS V14.01,2013-03-13 15:50:00,
2013-03-13 09:00:00,52.2,43.4,30.14,SSE,151,0.0,3.2,72,0.00,,SCT001,0.00,VWS V14.01,2013-03-13 16:00:00,
2013-03-13 09:10:00,53.4,44.3,30.14,SSE,150,0.0,0.0,71,0.00,,SCT001,0.00,VWS V14.01,2013-03-13 16:10:00,
2013-03-13 09:20:00,54.7,45.1,30.14,ESE,109,0.0,3.2,70,0.00,,SCT001,0.00,VWS V14.01,2013-03-13 16:20:00,
2013-03-13 09:30:00,55.4,46.2,30.14,East,86,0.0,3.2,71,0.00,,SCT001,0.00,VWS V14.01,2013-03-13 16:30:00,
2013-03-13 09:40:00,56.8,46.8,30.14,ENE,75,3.2,5.9,69,0.00,,,0.00,VWS V14.01,2013-03-13 16:40:00,
2013-03-13 09:50:00,58.3,45.3,30.14,NNE,30,3.2,7.5,62,0.00,,,0.00,VWS V14.01,2013-03-13 16:50:00,
2013-03-13 10:00:00,60.6,44.8,30.14,ENE,71,3.2,8.1,56,0.00,,,0.00,VWS V14.01,2013-03-13 17:00:00,
2013-03-13 10:10:00,63.1,42.6,30.14,ENE,65,3.2,7.5,47,0.00,,,0.00,VWS V14.01,2013-03-13 17:10:00,
2013-03-13 10:20:00,65.3,42.2,30.14,ESE,117,4.8,9.1,43,0.00,,,0.00,VWS V14.01,2013-03-13 17:20:00,
2013-03-13 10:30:00,67.1,43.3,30.14,SSE,154,5.9,7.0,42,0.00,,,0.00,VWS V14.01,2013-03-13 17:30:00,
2013-03-13 10:40:00,68.0,49.2,30.14,SSE,147,5.9,6.4,51,0.00,,,0.00,VWS V14.01,2013-03-13 17:40:00,
2013-03-13 10:50:00,68.0,50.8,30.14,South,190,4.3,5.9,54,0.00,,SCT003,0.00,VWS V14.01,2013-03-13 17:50:00,
2013-03-13 11:00:00,68.2,51.4,30.14,SSW,206,4.3,6.4,55,0.00,,SCT003,0.00,VWS V14.01,2013-03-13 18:00:00,
2013-03-13 11:10:00,68.5,50.8,30.14,West,263,0.0,4.8,53,0.00,,SCT003,0.00,VWS V14.01,2013-03-13 18:10:00,
2013-03-13 11:20:00,69.4,52.1,30.14,SSW,204,4.8,4.8,54,0.00,,SCT003,0.00,VWS V14.01,2013-03-13 18:20:00,
2013-03-13 11:30:00,70.2,51.2,30.14,SSW,197,4.3,5.9,51,0.00,,SCT003,0.00,VWS V14.01,2013-03-13 18:30:00,
2013-03-13 11:40:00,71.2,49.4,30.14,SSW,212,3.2,6.4,46,0.00,,SCT003,0.00,VWS V14.01,2013-03-13 18:40:00,
2013-03-13 11:50:00,72.5,49.4,30.14,South,181,3.8,6.4,44,0.00,,FEW003,0.00,VWS V14.01,2013-03-13 18:50:00,
2013-03-13 12:00:00,73.4,48.9,30.14,SSE,165,6.4,9.1,42,0.00,,FEW003,0.00,VWS V14.01,2013-03-13 19:00:00,
2013-03-13 12:10:00,73.8,49.3,30.14,South,191,3.2,7.0,42,0.00,,FEW003,0.00,VWS V14.01,2013-03-13 19:10:00,
2013-03-13 12:20:00,73.8,50.5,30.14,WNW,297,4.3,7.5,44,0.00,,FEW003,0.00,VWS V14.01,2013-03-13 19:20:00,
2013-03-13 12:30:00,73.0,49.9,30.14,SW,232,3.8,9.7,44,0.00,,FEW003,0.00,VWS V14.01,2013-03-13 19:30:00,
2013-03-13 12:40:00,72.1,49.7,30.14,SW,223,4.8,7.5,45,0.00,,CLR,0.00,VWS V14.01,2013-03-13 19:40:00,
2013-03-13 12:50:00,71.4,49.6,30.14,SW,223,6.4,10.5,46,0.00,,CLR,0.00,VWS V14.01,2013-03-13 19:50:00,
2013-03-13 13:00:00,70.5,49.9,30.14,WSW,255,2.7,9.7,48,0.00,,CLR,0.00,VWS V14.01,2013-03-13 20:00:00,
2013-03-13 13:10:00,70.7,50.6,30.14,SW,221,4.3,9.1,49,0.00,,CLR,0.00,VWS V14.01,2013-03-13 20:10:00,
2013-03-13 13:20:00,71.1,51.0,30.14,SW,229,3.8,7.5,49,0.00,,CLR,0.00,VWS V14.01,2013-03-13 20:20:00,
2013-03-13 13:30:00,71.1,51.0,30.14,South,183,6.4,7.5,49,0.00,,CLR,0.00,VWS V14.01,2013-03-13 20:30:00,
2013-03-13 13:40:00,70.7,51.2,30.11,SE,143,3.8,10.5,50,0.00,,CLR,0.00,VWS V14.01,2013-03-13 20:40:00,
2013-03-13 13:50:00,70.2,50.7,30.11,SSW,210,3.2,9.9,50,0.00,,CLR,0.00,VWS V14.01,2013-03-13 20:50:00,
2013-03-13 14:00:00,70.2,50.7,30.11,SW,228,7.0,7.5,50,0.00,,CLR,0.00,VWS V14.01,2013-03-13 21:00:00,
2013-03-13 14:10:00,70.0,50.5,30.11,SSW,213,7.0,9.1,50,0.00,,CLR,0.00,VWS V14.01,2013-03-13 21:10:00,
2013-03-13 14:20:00,70.5,50.5,30.11,SSW,207,4.3,12.6,49,0.00,,CLR,0.00,VWS V14.01,2013-03-13 21:20:00,
2013-03-13 14:30:00,70.2,50.7,30.11,SW,229,3.8,9.9,50,0.00,,CLR,0.00,VWS V14.01,2013-03-13 21:30:00,
2013-03-13 14:40:00,70.2,49.6,30.11,WSW,242,5.9,10.5,48,0.00,,CLR,0.00,VWS V14.01,2013-03-13 21:40:00,
2013-03-13 14:50:00,69.4,49.5,30.11,WSW,248,8.6,10.5,49,0.00,,CLR,0.00,VWS V14.01,2013-03-13 21:50:00,
2013-03-13 15:00:00,69.4,49.5,30.11,WSW,246,9.7,11.5,49,0.00,,CLR,0.00,VWS V14.01,2013-03-13 22:00:00,
2013-03-13 15:10:00,69.8,49.8,30.11,South,172,11.5,12.1,49,0.00,,CLR,0.00,VWS V14.01,2013-03-13 22:10:00,
2013-03-13 15:20:00,70.0,50.0,30.11,South,176,6.4,11.5,49,0.00,,CLR,0.00,VWS V14.01,2013-03-13 22:20:00,
2013-03-13 15:30:00,70.5,49.9,30.11,South,190,3.8,9.9,48,0.00,,CLR,0.00,VWS V14.01,2013-03-13 22:30:00,
2013-03-13 15:40:00,70.7,50.1,30.08,SW,215,3.2,9.7,48,0.00,,CLR,0.00,VWS V14.01,2013-03-13 22:40:00,
2013-03-13 15:50:00,71.4,50.7,30.08,South,169,7.0,9.1,48,0.00,,CLR,0.00,VWS V14.01,2013-03-13 22:50:00,
2013-03-13 16:00:00,70.9,50.2,30.08,SW,218,4.8,9.1,48,0.00,,CLR,0.00,VWS V14.01,2013-03-13 23:00:00,
2013-03-13 16:10:00,71.2,50.6,30.08,WSW,250,3.8,9.1,48,0.00,,CLR,0.00,VWS V14.01,2013-03-13 23:10:00,
2013-03-13 16:20:00,71.2,50.6,30.08,South,187,3.2,9.7,48,0.00,,CLR,0.00,VWS V14.01,2013-03-13 23:20:00,
2013-03-13 16:30:00,71.4,50.7,30.08,SSW,207,3.8,8.1,48,0.00,,CLR,0.00,VWS V14.01,2013-03-13 23:30:00,
2013-03-13 16:40:00,71.8,50.5,30.08,SSE,166,0.0,7.5,47,0.00,,CLR,0.00,VWS V14.01,2013-03-13 23:40:00,
2013-03-13 16:50:00,71.6,50.3,30.08,SSE,149,3.8,6.4,47,0.00,,CLR,0.00,VWS V14.01,2013-03-13 23:50:00,
2013-03-13 17:00:00,71.2,50.6,30.08,SSW,206,3.2,8.6,48,0.00,,CLR,0.00,VWS V14.01,2013-03-14 00:00:00,
2013-03-13 17:10:00,71.1,50.4,30.08,WSW,244,3.8,7.5,48,0.00,,CLR,0.00,VWS V14.01,2013-03-14 00:10:00,
2013-03-13 17:20:00,70.2,50.1,30.08,SSE,156,7.0,7.0,49,0.00,,CLR,0.00,VWS V14.01,2013-03-14 00:20:00,
2013-03-13 17:30:00,69.4,50.5,30.08,West,261,7.0,7.0,51,0.00,,CLR,0.00,VWS V14.01,2013-03-14 00:30:00,
2013-03-13 17:40:00,68.5,50.8,30.08,South,185,0.0,7.0,53,0.00,,CLR,0.00,VWS V14.01,2013-03-14 00:40:00,
2013-03-13 17:50:00,67.6,50.4,30.08,WSW,243,4.3,7.0,54,0.00,,CLR,0.00,VWS V14.01,2013-03-14 00:50:00,
2013-03-13 18:00:00,66.9,51.2,30.08,WNW,288,4.8,6.4,57,0.00,,FEW004,0.00,VWS V14.01,2013-03-14 01:00:00,
2013-03-13 18:10:00,66.2,51.5,30.08,WSW,255,2.7,4.8,59,0.00,,FEW004,0.00,VWS V14.01,2013-03-14 01:10:00,
2013-03-13 18:20:00,64.8,51.5,30.08,West,264,3.8,4.8,62,0.00,,FEW004,0.00,VWS V14.01,2013-03-14 01:20:00,
2013-03-13 18:30:00,63.7,51.7,30.08,South,188,0.0,6.4,65,0.00,,FEW004,0.00,VWS V14.01,2013-03-14 01:30:00,
2013-03-13 18:40:00,62.4,51.7,30.08,West,261,4.8,5.9,68,0.00,,,0.00,VWS V14.01,2013-03-14 01:40:00,
2013-03-13 18:50:00,61.3,51.1,30.08,West,277,4.3,4.8,69,0.00,,,0.00,VWS V14.01,2013-03-14 01:50:00,
2013-03-13 19:00:00,60.3,50.8,30.08,SW,217,3.2,5.4,71,0.00,,,0.00,VWS V14.01,2013-03-14 02:00:00,
2013-03-13 19:20:00,58.1,50.6,30.08,West,263,0.0,5.9,76,0.00,,,0.00,VWS V14.01,2013-03-14 02:20:00,
2013-03-13 19:30:00,57.4,50.9,30.08,SSW,213,0.0,3.8,79,0.00,,,0.00,VWS V14.01,2013-03-14 02:30:00,
2013-03-13 19:40:00,56.7,50.9,30.08,SSW,212,3.2,4.8,81,0.00,,,0.00,VWS V14.01,2013-03-14 02:40:00,
2013-03-13 19:50:00,56.3,50.9,30.08,SSW,205,0.0,3.8,82,0.00,,,0.00,VWS V14.01,2013-03-14 02:50:00,
2013-03-13 20:00:00,56.3,51.2,30.08,SSW,205,0.0,0.0,83,0.00,,,0.00,VWS V14.01,2013-03-14 03:00:00,
2013-03-13 20:10:00,56.1,51.4,30.11,SE,132,0.0,3.2,84,0.00,,,0.00,VWS V14.01,2013-03-14 03:10:00,
2013-03-13 20:20:00,56.1,51.4,30.11,ESE,115,0.0,3.2,84,0.00,,,0.00,VWS V14.01,2013-03-14 03:20:00,
2013-03-13 20:30:00,55.9,51.2,30.11,ESE,115,0.0,2.7,84,0.00,,,0.00,VWS V14.01,2013-03-14 03:30:00,
2013-03-13 20:40:00,55.9,51.2,30.08,ESE,115,0.0,0.0,84,0.00,,,0.00,VWS V14.01,2013-03-14 03:40:00,
2013-03-13 20:50:00,55.9,51.2,30.11,ESE,115,0.0,2.7,84,0.00,,,0.00,VWS V14.01,2013-03-14 03:50:00,
2013-03-13 21:00:00,55.8,51.3,30.11,ESE,115,0.0,0.0,85,0.00,,,0.00,VWS V14.01,2013-03-14 04:00:00,
2013-03-13 21:10:00,55.8,51.3,30.11,ESE,115,0.0,0.0,85,0.00,,,0.00,VWS V14.01,2013-03-14 04:10:00,
2013-03-13 21:20:00,55.6,51.2,30.11,ESE,115,0.0,0.0,85,0.00,,,0.00,VWS V14.01,2013-03-14 04:20:00,
2013-03-13 21:30:00,55.6,51.2,30.11,ESE,115,0.0,0.0,85,0.00,,,0.00,VWS V14.01,2013-03-14 04:30:00,
2013-03-13 21:40:00,55.2,50.8,30.11,ESE,115,0.0,0.0,85,0.00,,,0.00,VWS V14.01,2013-03-14 04:40:00,
2013-03-13 21:50:00,55.0,50.6,30.11,ESE,115,0.0,0.0,85,0.00,,,0.00,VWS V14.01,2013-03-14 04:50:00,
2013-03-13 22:00:00,54.7,50.0,30.11,ESE,115,0.0,0.0,84,0.00,,,0.00,VWS V14.01,2013-03-14 05:00:00,
2013-03-13 22:10:00,54.5,50.1,30.11,ESE,115,0.0,0.0,85,0.00,,,0.00,VWS V14.01,2013-03-14 05:10:00,
2013-03-13 22:20:00,54.1,49.7,30.11,ESE,115,0.0,0.0,85,0.00,,,0.00,VWS V14.01,2013-03-14 05:20:00,
2013-03-13 22:30:00,54.0,49.6,30.11,ESE,115,0.0,3.8,85,0.00,,,0.00,VWS V14.01,2013-03-14 05:30:00,
2013-03-13 22:40:00,53.8,49.1,30.11,ESE,115,0.0,0.0,84,0.00,,,0.00,VWS V14.01,2013-03-14 05:40:00,
2013-03-13 22:50:00,53.6,48.9,30.11,ESE,115,0.0,0.0,84,0.00,,,0.00,VWS V14.01,2013-03-14 05:50:00,
2013-03-13 23:00:00,53.6,48.9,30.11,ESE,115,0.0,0.0,84,0.00,,,0.00,VWS V14.01,2013-03-14 06:00:00,
2013-03-13 23:10:00,53.6,48.6,30.11,ESE,115,3.8,3.8,83,0.00,,,0.00,VWS V14.01,2013-03-14 06:10:00,
2013-03-13 23:20:00,53.8,48.4,30.11,North,351,0.0,3.8,82,0.00,,,0.00,VWS V14.01,2013-03-14 06:20:00,
2013-03-13 23:30:00,54.1,48.8,30.11,SW,218,3.2,4.8,82,0.00,,,0.00,VWS V14.01,2013-03-14 06:30:00,
2013-03-13 23:40:00,54.3,48.6,30.11,WSW,242,0.0,4.3,81,0.00,,,0.00,VWS V14.01,2013-03-14 06:40:00,
2013-03-13 23:50:00,54.1,48.8,30.11,SSW,211,3.2,4.3,82,0.00,,,0.00,VWS V14.01,2013-03-14 06:50:00,